Location: Colorado Springs
(38.8340°N, 104.8210°W)
Time: 12:50:37
(UTC-06:00)

Vanguard 1 Rocket - Visible Passes

Search period start: 23 October 2017 00:00
Search period end: 02 November 2017 00:00
Orbit: 655 x 4222 km, 34.3° (Epoch: 22 October)

Date Brightness Start Highest point End Pass type
(mag) Time Alt. Az. Time Alt. Az. Time Alt. Az.
23 Oct 10.9 03:39:08 10° S 03:46:09 15° SSE 03:51:32 10° ESE visible
23 Oct 9.5 06:03:00 10° SW 06:13:18 34° SSE 06:19:19 10° E visible
24 Oct 10.1 04:50:20 10° SSW 05:01:37 28° SSE 05:08:30 10° ESE visible
25 Oct 10.6 03:43:17 16° S 03:49:28 21° SSE 03:56:54 10° ESE visible
25 Oct 9.2 06:05:04 10° SW 06:16:36 43° SSE 06:22:58 10° E visible
26 Oct 11.0 02:36:58 15° SSE 02:36:58 15° SSE 02:43:34 10° ESE visible
26 Oct 9.8 04:54:21 15° SSW 05:04:55 36° SSE 05:12:24 10° E visible
27 Oct 10.3 03:47:54 24° S 03:52:44 29° SSE 04:01:17 10° E visible
27 Oct 9.0 06:07:22 10° WSW 06:19:53 51° SSE 06:26:30 10° E visible
28 Oct 10.8 02:41:21 21° SE 02:41:21 21° SE 02:49:08 10° ESE visible
28 Oct 9.5 04:58:42 21° SW 05:08:10 44° SSE 05:16:04 10° E visible
29 Oct 10.1 03:52:03 32° S 03:55:56 36° SSE 04:05:13 10° E visible
29 Oct 8.9 06:09:52 10° WSW 06:23:08 59° S 06:29:59 10° E visible
30 Oct 10.5 02:45:19 28° SE 02:45:19 28° SE 02:53:38 10° E visible
30 Oct 9.4 05:02:39 26° SW 05:11:22 53° SSE 05:19:37 10° E visible
31 Oct 11.1 01:38:31 14° ESE 01:38:31 14° ESE 01:40:40 10° ESE visible
31 Oct 9.9 03:55:50 41° S 03:59:05 45° SSE 04:08:54 10° E visible
31 Oct 8.8 06:13:09 11° WSW 06:26:23 65° S 06:33:24 10° E visible
01 Nov 10.3 02:48:57 35° SE 02:48:57 35° SE 02:57:38 10° E visible
01 Nov 9.2 05:06:16 30° SW 05:14:33 60° SSE 05:23:04 10° E visible
